Zurück zum Katalog

DELTA 1 DEB

AktivSSO
NORAD 13530·DEBRIS·🇺🇸 United States

Gestartet Jul 29, 1976 von Vandenberg Space Force Base

Loading…

Nächste Überflüge (nächste 24 Stunden)

TLE

AktuellSource: Space-Track

Epoche: Sep 13, 2026, 21:13 UTC

1 13530U 76077EC  26256.88428036  .00000639  00000-0  51663-2 0  9990
2 13530 102.3387   5.1091 0126368 199.9202 286.3779 12.37344840 73415

Verfolge DELTA 1 DEB in Echtzeit mit AllMySat

Download on the App Store